Tracking 35030 objects as of 9-Aug-2026
HD Live streaming from Space Station
objects crossing your sky now

ORBCOMM FM 103

Track ORBCOMM FM 103 now!
10-day predictions
ORBCOMM FM 103 is classified as:


NORAD ID: 40091
Int'l Code: 2014-040F
Launch date: July 14, 2014
Source: United States (US)
Launch site: AIR FORCE EASTERN TEST RANGE (AFETR)
Your satellite tracking list
Your tracking list is empty




NASA's NSSDC Master Catalog

Two Line Element Set (TLE):
1 40091U 14040F   26220.97302818  .00000136  00000-0  64925-4 0  9993
2 40091  47.0038 203.5195 0001511 353.7203   6.3663 14.58886525625092
Source of the keplerian elements: AFSPC